This demonstration page uses our WeatherBlox Daily Observations layout. Learn more.

Left ArrowRight Arrow

Hourly Observations for September 30, 2019

Temp ( °F °C ) Dew Point ( °F °C ) Humidity (%) Winds ( mph kmh ) Pressure ( in mb ) Visibility ( mi km ) Precip ( " mm )
12:59 am 00:59 Partly Cloudy 73 22.8 69 20.6 87 87 ENE 7 11 30.23 1024 10 16 0.00 0.00
1:59 am 01:59 Mostly Cloudy 73 22.8 69 20.6 87 87 ENE 9 15 30.22 1023 10 16 0.00 0.00
2:59 am 02:59 Mostly Cloudy 73 22.8 68 20 84 84 ENE 9 15 30.21 1023 10 16 0.00 0.00
3:46 am 03:46 Mostly Cloudy 73 22.8 68 20 84 84 E 6 9 30.21 1023 10 16 0.00 0.00
3:59 am 03:59 Cloudy 73 22.8 68 20 84 84 ENE 7 11 30.21 1023 10 16 0.00 0.00
4:33 am 04:33 Cloudy 73 22.8 68 20 84 84 ENE 8 13 30.21 1023 10 16 0.00 0.00
4:59 am 04:59 Mostly Cloudy 73 22.8 67 19.4 81 81 ENE 9 15 30.21 1023 10 16 0.00 0.00
5:59 am 05:59 Mostly Cloudy 73 22.8 67 19.4 81 81 E 9 15 30.22 1023 10 16 0.00 0.00
6:59 am 06:59 Mostly Cloudy 73 22.8 67 19.4 81 81 ENE 10 17 30.22 1024 10 16 0.00 0.00
7:32 am 07:32 Mostly Cloudy 73 22.8 66 18.9 79 79 E 9 15 30.23 1024 10 16 0.00 0.00
7:52 am 07:52 Mostly Cloudy 73 22.8 66 18.9 79 79 E 8 13 30.23 1024 10 16 0.00 0.00
7:59 am 07:59 Mostly Cloudy 73 22.8 66 18.9 79 79 E 12 19 30.23 1024 10 16 0.00 0.00
8:59 am 08:59 Mostly Cloudy 74 23.3 67 19.4 79 79 ENE 12 19 30.24 1024 10 16 0.00 0.00
9:22 am 09:22 Mostly Cloudy 74 23.3 67 19.4 79 79 ENE 10 17 30.25 1024 10 16 0.00 0.00
9:59 am 09:59 Mostly Cloudy 76 24.4 67 19.4 74 74 ENE 9 15 30.24 1024 10 16 0.00 0.00
10:59 am 10:59 Mostly Cloudy 75 23.9 66 18.9 74 74 ENE 10 17 30.25 1025 10 16 0.00 0.00
11:59 am 11:59 Mostly Cloudy 77 25 66 18.9 69 69 ENE 12 19 30.26 1025 10 16 0.00 0.00
12:59 pm 12:59 Mostly Cloudy 77 25 65 18.3 66 66 ENE 15 24 30.25 1024 10 16 0.00 0.00
1:07 pm 13:07 Mostly Cloudy 77 25 65 18.3 66 66 ENE 15 24 30.25 1024 10 16 0.00 0.00
1:30 pm 13:30 Mostly Cloudy 76 24.4 65 18.3 69 69 ENE 12 19 30.24 1024 10 16 0.00 0.00
1:40 pm 13:40 Mostly Cloudy 76 24.4 64 17.8 67 67 E 12 19 30.23 1024 10 16 0.00 0.00
1:59 pm 13:59 Mostly Cloudy 75 23.9 64 17.8 69 69 ENE 12 19 30.23 1024 10 16 0.00 0.00
2:36 pm 14:36 Mostly Cloudy 76 24.4 64 17.8 67 67 ENE 12 19 30.23 1024 10 16 0.00 0.00
2:59 pm 14:59 Mostly Cloudy 75 23.9 64 17.8 69 69 E 13 20 30.22 1024 10 16 0.00 0.00
3:59 pm 15:59 Mostly Cloudy 76 24.4 64 17.8 67 67 ENE 10 17 30.21 1023 10 16 0.00 0.00
4:59 pm 16:59 Mostly Cloudy 74 23.3 62 16.7 67 67 ENE 13 20 30.19 1023 10 16 0.00 0.00
5:59 pm 17:59 Mostly Cloudy 73 22.8 61 16.1 66 66 E 8 13 30.19 1022 10 16 0.00 0.00
6:59 pm 18:59 Mostly Cloudy 72 22.2 59 15 64 64 E 9 15 30.19 1022 10 16 0.00 0.00
7:59 pm 19:59 Mostly Cloudy 71 21.7 61 16.1 71 71 E 7 11 30.19 1023 10 16 0.00 0.00
8:59 pm 20:59 Mostly Cloudy 71 21.7 60 15.6 68 68 E 10 17 30.19 1023 10 16 0.00 0.00
9:59 pm 21:59 Mostly Cloudy 69 20.6 60 15.6 73 73 ESE 3 6 30.20 1023 10 16 0.00 0.00
10:59 pm 22:59 Mostly Cloudy 69 20.6 60 15.6 73 73 ESE 3 6 30.20 1023 10 16 0.00 0.00
11:59 pm 23:59 Cloudy 70 21.1 60 15.6 71 71 ESE 3 6 30.19 1022 10 16 0.00 0.00

Powered by AerisWeather